Showing default

ICEYE-X35, 58302

Orbit data source: Space-Track

ICEYE-X35, 58302 is a payload satellite owned by ICEYE (FI) in SSO that was launched on Sat, 11 Nov 2023 UTC via an FALCON 9 launch vehicle from the Air Force Western Test Range (AFWTR). Payload-class satellites include a variety of spacecraft equipped with specific instruments for various scientific and technological missions. These include communications satellites like Starlink; space stations such as the ISS; scientific satellites like the Hubble; Earth observation satellites from companies like Planet Labs, Umbra, and HawkEye 360; GPS; miniature CubeSats for education and research; and military/defense satellites.

Loading next visibility...
Identifier
58302, 2023-174AY
Orbit
SSO
Country
Flag of FIFI / FIN
Related business
Manufacturer
ICEYE
Mission
Operational Commercial Radar Imaging
Bus & Motor
ICEYE, Unknown motor
Mass
90 kg wet, 89 kg dry
Launch date (UTC)
2023-11-11 (3 years ago)
Launch vehicle
FALCON 9
Launch site
Air Force Western Test Range (AFWTR)
Object type
Payload
Rocket body
Debris
Shape & HBR
Box + 1 Pan, 2.4 m
Radar Cross Section
0.825 m², Medium (>0.1 m² and < 1m²)

Expand to show TLE details & history
Last TLE update: 1 day ago

TLE from 1 day ago
0 ICEYE-X35
1 58302U 23174AY  26172.49460351  .00040290  00000-0  64917-3 0  9990
2 58302  97.3787 257.1865 0009597 178.9661 181.1614 15.52788854146010
Epoch: 2026-06-21T11:52Z
TLE epoch observation values (Epoch: 2026-06-21T11:52:13.743Z)
Latitude
0.00004°
Longitude
169.43517°
Altitude
418.237 km
Speed
7.656 km/s
True Right ascension
17h 08m 44s
True Declination
0° 00' 00"
Sunlit
Object was in full shadow at epoch
Visualization orbit readout
Latitude
Unknown
Longitude
Unknown
Altitude
Unknown
Speed
Unknown
Apparent Right ascension
Unknown
Apparent Declination
Unknown
Sunlit
N/A
Visualization observer readout
Local Sidereal Time
23:19:37
Azimuth
Unknown
Elevation
Unknown
Doppler factor
Unknown
Orbital elements
Apogee altitude
412.019 km
Perigee altitude
398.999 km
Semi-major axis
6,783.646 km
Eccentricity
0.00096
Inclination
97.3787°
RAAN
257.1865°
Arg. of periapsis
178.9661°
True anomaly
181.15917°
Mean anomaly
181.1614°
Eccentric anomaly
181.16029°
Mean motion
3.88462 °/min
Orbital period
92.67 mins
BSTAR
0.00064917
Loading maneuver chart data...
Computing Atmospheric mass density...
Loading historical data...
Loading historical data...
Loading historical data...
Loading historical data...
Loading historical data...
Loading historical data...
Loading historical data...

Documentation

Showing up to 5 results
|